[[{"header":{"parameterUnit":"m.s-1","parameterCategory":1,"la1":30.2991,"la2":30.254,"lo1":-89.0895,"lo2":-89.0444,"dy":0.0017,"dx":0.0017,"nx":28,"ny":28,"refTime":"2025-06-22T21:00:00:Z","depth":0,"parameterNumber":2,"parameterNumberName":"U-component_of_WINDS"},"data":[0,0,0,0,0,0,0,0,0,0,0,0,0,0,0,0,0,0,0,0,0,0,0,0,0,0,0,0,0,0,0,0,0,0,0,0,0,0,0,0,0,0,0,0,0,0,0,0,0,0,0,0,0,0,0,0,0,0,-1.3349,-1.3349,0,-1.3414,-1.3414,-1.3415,-1.3402,-1.3401,-1.3399,-1.3398,-1.3467,-1.347,-1.3473,0,0,0,0,0,0,0,0,0,0,0,0,0,-1.3215,-1.3218,-1.3349,-1.3349,-1.335,-1.3414,-1.3414,-1.3415,-1.3402,-1.3401,-1.3399,-1.3398,-1.3466,-1.347,-1.3473,0,0,0,0,0,0,0,0,0,0,0,0,0,-1.3276,-1.3219,-1.3348,-1.3351,-1.3352,-1.3413,-1.3414,-1.3416,-1.3402,-1.3401,-1.3399,-1.3397,-1.3465,-1.3469,-1.3474,-1.3537,0,0,-1.3487,-1.3489,0,0,0,0,0,0,0,0,-1.3273,-1.3281,-1.335,-1.3351,-1.3352,-1.3398,-1.3393,-1.3456,-1.3403,-1.3383,-1.3398,-1.3396,-1.3446,-1.3452,-1.3468,-1.354,-1.3543,-1.3488,-1.349,-1.3492,-1.3494,0,0,0,0,0,0,0,-1.3268,-1.3278,-1.3374,-1.3351,-1.3352,-1.335,-1.3357,-1.3405,-1.3424,-1.3385,-1.3384,-1.3392,-1.3446,-1.3464,-1.3469,-1.3544,-1.3488,-1.3492,-1.3494,-1.3496,-1.3673,-1.3675,0,0,0,0,0,0,-1.3263,-1.3275,-1.3372,-1.3376,-1.3307,-1.3354,-1.3361,-1.3385,-1.3423,-1.3427,-1.3393,-1.3391,-1.3457,-1.3464,-1.3472,-1.3549,-1.3492,-1.3496,-1.3499,-1.3671,-1.3673,-1.3675,0,0,0,0,0,0,-1.326,-1.3272,-1.337,-1.3325,-1.3338,-1.3358,-1.3385,-1.3387,-1.3405,-1.343,-1.3433,-1.3408,-1.3456,-1.3466,-1.3521,-1.3551,-1.3498,-1.3502,-1.3668,-1.3671,-1.3674,-1.3703,0,0,0,0,0,0,-1.3256,-1.3271,-1.3295,-1.3326,-1.334,-1.3417,-1.3387,-1.339,-1.3412,-1.341,-1.3444,-1.3448,-1.3455,-1.3514,-1.3525,-1.3556,-1.3506,-1.3666,-1.367,-1.3673,-1.37,-1.3707,-1.3713,0,0,0,0,0,-1.3252,-1.3301,-1.3296,-1.3308,-1.337,-1.3419,-1.3427,-1.3434,-1.3415,-1.3439,-1.3455,-1.3447,-1.3546,-1.352,-1.3532,-1.3565,-1.3664,-1.3669,-1.3673,-1.3697,-1.3705,-1.3713,0,0,0,0,0,0,-1.3273,-1.3305,-1.33,-1.336,-1.3387,-1.3417,-1.3448,-1.3443,-1.3476,-1.3472,-1.348,-1.3488,-1.3544,-1.356,-1.3531,-1.3629,-1.3602,-1.361,-1.3616,-1.3625,-1.3631,-1.3626,-1.351,0,0,0,0,0,-1.3285,-1.3321,-1.3347,-1.3398,-1.3411,-1.3427,-1.3449,-1.3451,-1.348,-1.3491,-1.3511,-1.354,-1.3577,-1.3602,-1.3638,-1.3702,-1.371,-1.373,-1.3737,-1.3742,-1.3749,-1.3784,-1.3794,-1.369,-1.369,-1.369,0,0,-1.3309,-1.3331,-1.3354,-1.3403,-1.3424,-1.3462,-1.3437,-1.3478,-1.3507,-1.3498,-1.3551,-1.3567,-1.3599,-1.3659,-1.3687,-1.3674,-1.3779,-1.3748,-1.3752,-1.3756,-1.379,-1.38,-1.3809,-1.3694,-1.3693,-1.3692,0,0,-1.3374,-1.3394,-1.3438,-1.346,-1.3491,-1.3502,-1.3512,-1.3543,-1.3553,-1.3606,-1.36,-1.3635,-1.3699,-1.3722,-1.3743,-1.3816,-1.381,-1.3828,-1.3863,-1.3897,-1.3906,-1.3913,-1.394,-1.3949,-1.3834,-1.3834,-1.3834,0,-1.3401,-1.3457,-1.3462,-1.3504,-1.3526,-1.3519,-1.3564,-1.3585,-1.3627,-1.3643,-1.3628,-1.3709,-1.373,-1.3796,-1.3814,-1.383,-1.3843,-1.3824,-1.3904,-1.3911,-1.3918,-1.3944,-1.3954,-1.3836,-1.3836,-1.3835,-1.3835,0,-1.3489,-1.3528,-1.3561,-1.3601,-1.3626,-1.367,-1.3682,-1.3708,-1.3708,-1.372,-1.3775,-1.38,-1.3841,-1.3857,-1.3858,-1.3923,-1.3915,-1.3902,-1.3876,-1.393,-1.3954,-1.3964,-1.3839,-1.3838,-1.3837,-1.3837,0,0,-1.3569,-1.3611,-1.3623,-1.3641,-1.3675,-1.3706,-1.375,-1.3789,-1.3811,-1.3841,-1.3878,-1.3933,-1.3921,-1.3944,-1.3948,-1.3978,-1.4035,-1.3962,-1.3963,-1.3975,-1.4109,-1.4119,-1.413,-1.4031,-1.4033,-1.4035,-1.4107,0,-1.3637,-1.3713,-1.3719,-1.3788,-1.3824,-1.3818,-1.3856,-1.3882,-1.3894,-1.3928,-1.3942,-1.3981,-1.3962,-1.3976,-1.4006,-1.4022,-1.4063,-1.4017,-1.4067,-1.4069,-1.406,-1.4143,-1.4153,-1.422,-1.4116,-1.4118,-1.4119,0,-1.3726,-1.3758,-1.383,-1.3859,-1.3875,-1.3909,-1.3946,-1.3978,-1.4007,-1.4014,-1.404,-1.4039,-1.4085,-1.4057,-1.412,-1.4089,-1.411,-1.4121,-1.4124,-1.4129,-1.4097,-1.4151,-1.4241,-1.4252,-1.4134,-1.4133,-1.4132,0,-1.3778,-1.3839,-1.389,-1.3905,-1.3941,-1.3965,-1.3981,-1.4009,-1.4032,-1.4064,-1.408,-1.4117,-1.4138,-1.4167,-1.4177,-1.4155,-1.4241,-1.4213,-1.4248,-1.4248,-1.4267,-1.4266,-1.4363,-1.428,-1.428,-1.4279,-1.4279,0,-1.3854,-1.3899,-1.3913,-1.3945,-1.3995,-1.4001,-1.4051,-1.4066,-1.409,-1.4125,-1.4122,-1.4155,-1.4166,-1.4201,-1.421,-1.4261,-1.4271,-1.4278,-1.428,-1.4279,-1.4278,-1.4293,-1.4289,-1.4282,-1.4281,-1.4281,-1.428,0,-1.3921,-1.3932,-1.3987,-1.4016,-1.4024,-1.406,-1.4085,-1.4116,-1.4128,-1.4172,-1.4183,-1.4202,-1.4243,-1.4256,-1.4306,-1.4311,-1.4372,-1.4369,-1.4362,-1.4362,-1.4397,-1.4394,-1.4507,-1.4523,-1.4429,-1.443,-1.4431,0,-1.3968,-1.4002,-1.4035,-1.4057,-1.4074,-1.4111,-1.4134,-1.4142,-1.4167,-1.4203,-1.423,-1.427,-1.4303,-1.437,-1.4388,-1.4427,-1.4425,-1.4462,-1.4431,-1.4429,-1.4427,-1.4425,-1.4428,-1.4468,-1.4469,-1.447,-1.4471,0,-1.4052,-1.4056,-1.409,-1.4125,-1.4153,-1.4182,-1.421,-1.4229,-1.4241,-1.4269,-1.4311,-1.4336,-1.4387,-1.4427,-1.4466,-1.4484,-1.448,-1.448,-1.4491,-1.449,-1.4485,-1.4489,-1.4378,-1.4478,-1.4477,-1.4477,-1.4476,-1.4476,-1.4111,-1.4141,-1.4169,-1.4206,-1.4228,-1.4254,-1.4284,-1.4299,-1.4334,-1.4375,-1.4378,-1.4423,-1.4452,-1.4504,-1.4523,-1.4559,-1.4549,-1.4563,-1.4567,-1.4571,-1.4574,-1.4478,-1.4566,-1.4566,-1.4566,-1.4566,-1.4566,0,-1.4195,-1.4212,-1.4247,-1.4285,-1.4315,-1.4307,-1.4338,-1.4364,-1.4403,-1.443,-1.4462,-1.451,-1.455,-1.4571,-1.4611,-1.4636,-1.4635,-1.4646,-1.4645,-1.4649,-1.4581,-1.4568,-1.4646,-1.4646,-1.4646,-1.4646,-1.4646,-1.4646,-1.4243,-1.4293,-1.43,-1.4362,-1.4379,-1.4422,-1.4441,-1.4465,-1.4486,-1.454,-1.4572,-1.4586,-1.4611,-1.4652,-1.4688,-1.4693,-1.4708,-1.4721,-1.4725,-1.4662,-1.4653,-1.4646,-1.4634,-1.4724,-1.4724,-1.479,-1.4791,-1.4791]},{"header":{"parameterUnit":"m.s-1","parameterCategory":1,"la1":30.2991,"la2":30.254,"lo1":-89.0895,"lo2":-89.0444,"dy":0.0017,"dx":0.0017,"nx":28,"ny":28,"refTime":"2025-06-22T21:00:00:Z","depth":0,"parameterNumber":3,"parameterNumberName":"V-component_of_WINDS"},"data":[0,0,0,0,0,0,0,0,0,0,0,0,0,0,0,0,0,0,0,0,0,0,0,0,0,0,0,0,0,0,0,0,0,0,0,0,0,0,0,0,0,0,0,0,0,0,0,0,0,0,0,0,0,0,0,0,0,0,2.0597,2.0597,0,2.0603,2.0603,2.0603,2.0554,2.0552,2.0551,2.055,2.0555,2.0556,2.0558,0,0,0,0,0,0,0,0,0,0,0,0,0,2.0544,2.0545,2.0597,2.0597,2.0597,2.0603,2.0603,2.0603,2.0554,2.0552,2.0551,2.0549,2.0554,2.0556,2.0558,0,0,0,0,0,0,0,0,0,0,0,0,0,2.056,2.0545,2.0597,2.0574,2.0572,2.0603,2.0603,2.0603,2.0554,2.0552,2.055,2.0548,2.0554,2.0556,2.0558,2.0612,0,0,2.0564,2.0565,0,0,0,0,0,0,0,0,2.0559,2.0562,2.0577,2.0575,2.0573,2.0575,2.0586,2.0606,2.0555,2.0561,2.055,2.0547,2.0563,2.0564,2.057,2.0612,2.0612,2.0565,2.0566,2.0567,2.0567,0,0,0,0,0,0,0,2.0558,2.0561,2.0599,2.0577,2.0575,2.0563,2.0563,2.0589,2.0573,2.056,2.0557,2.0558,2.0562,2.0568,2.057,2.0612,2.0564,2.0566,2.0568,2.0568,2.0697,2.0699,0,0,0,0,0,0,2.056,2.0561,2.0599,2.0599,2.0561,2.0565,2.0565,2.0577,2.0573,2.057,2.056,2.0556,2.0565,2.0567,2.057,2.0631,2.0567,2.0569,2.057,2.0695,2.0697,2.07,0,0,0,0,0,0,2.0559,2.0564,2.0599,2.0579,2.0583,2.0568,2.0582,2.0578,2.0584,2.0573,2.057,2.0569,2.0564,2.0567,2.0601,2.063,2.057,2.0571,2.0692,2.0695,2.0698,2.0755,0,0,0,0,0,0,2.0558,2.0564,2.0584,2.058,2.0584,2.0631,2.0583,2.058,2.0588,2.0583,2.0581,2.0578,2.0563,2.0598,2.0603,2.0632,2.0573,2.0689,2.0694,2.0697,2.075,2.0759,2.0767,0,0,0,0,0,2.0556,2.06,2.0586,2.0591,2.0609,2.0633,2.0635,2.0616,2.0591,2.0611,2.0603,2.0578,2.0627,2.0602,2.0607,2.0637,2.0687,2.0692,2.0697,2.0746,2.0758,2.0767,0,0,0,0,0,0,2.0608,2.0599,2.0583,2.0627,2.0631,2.0624,2.0649,2.0629,2.064,2.0634,2.0611,2.0611,2.0649,2.0647,2.062,2.0689,2.0653,2.0659,2.0688,2.0699,2.0707,2.0706,2.0575,0,0,0,0,0,2.0625,2.0645,2.0636,2.0676,2.0679,2.0664,2.0673,2.0658,2.0661,2.0663,2.0658,2.0661,2.0677,2.0688,2.0702,2.075,2.0748,2.0773,2.0782,2.0789,2.0794,2.0818,2.0829,2.0715,2.0715,2.0715,0,0,2.066,2.0657,2.0671,2.0686,2.0687,2.0708,2.0665,2.0689,2.0704,2.0666,2.0698,2.0695,2.0697,2.0738,2.0756,2.0738,2.0825,2.0795,2.0801,2.0802,2.0824,2.0835,2.0844,2.0719,2.0718,2.0718,0,0,2.0733,2.0734,2.0766,2.0768,2.0771,2.076,2.0768,2.0765,2.0761,2.0793,2.0764,2.0782,2.081,2.0813,2.0818,2.0892,2.0869,2.0897,2.0942,2.0965,2.0974,2.0982,2.1007,2.1016,2.0903,2.0903,2.0903,0,2.0775,2.0806,2.0785,2.0811,2.0818,2.0785,2.0817,2.082,2.0827,2.0832,2.0812,2.0846,2.0846,2.0886,2.0904,2.091,2.0917,2.0896,2.0975,2.0982,2.0989,2.1013,2.1022,2.0906,2.0906,2.0905,2.0905,0,2.0857,2.0878,2.0904,2.0912,2.0922,2.0951,2.0934,2.0947,2.0932,2.0923,2.0956,2.0954,2.0966,2.0975,2.0961,2.1014,2.1002,2.0979,2.0942,2.1003,2.1025,2.1034,2.0911,2.091,2.0909,2.0908,0,0,2.0963,2.0958,2.0968,2.097,2.0971,2.0986,2.1014,2.1026,2.1037,2.1043,2.1064,2.1089,2.1067,2.1073,2.1058,2.1079,2.1136,2.1053,2.1052,2.1067,2.1193,2.121,2.122,2.1122,2.1123,2.1125,2.1192,0,2.1033,2.1079,2.1061,2.1108,2.1127,2.1096,2.1119,2.1122,2.1115,2.113,2.1122,2.114,2.111,2.1113,2.1133,2.1125,2.1161,2.112,2.114,2.1141,2.1139,2.1232,2.125,2.1314,2.1201,2.1202,2.1203,0,2.112,2.113,2.1179,2.1175,2.1182,2.1203,2.1213,2.1228,2.123,2.1223,2.123,2.121,2.1236,2.1201,2.1235,2.1208,2.1215,2.1213,2.1215,2.1215,2.1175,2.1233,2.1334,2.1343,2.1217,2.1216,2.1215,0,2.1191,2.1215,2.1247,2.1251,2.1247,2.1263,2.1262,2.1262,2.1271,2.1279,2.1284,2.1296,2.1302,2.1311,2.1295,2.1271,2.1332,2.1295,2.1326,2.1326,2.1339,2.1338,2.1441,2.1347,2.1346,2.1346,2.1346,0,2.127,2.1301,2.1279,2.1298,2.1332,2.1311,2.1345,2.1341,2.1341,2.1359,2.1333,2.1351,2.1329,2.1344,2.1332,2.1362,2.1366,2.136,2.1356,2.1362,2.1362,2.1365,2.136,2.1349,2.1348,2.1348,2.1347,0,2.1353,2.134,2.1373,2.1367,2.1366,2.1391,2.1385,2.1403,2.1395,2.1418,2.1422,2.1408,2.1425,2.141,2.1426,2.1418,2.1457,2.1448,2.1457,2.1453,2.1485,2.1482,2.1592,2.1605,2.1504,2.1505,2.1505,0,2.1404,2.1427,2.1423,2.1433,2.1434,2.1451,2.1459,2.144,2.1449,2.1453,2.147,2.1485,2.1495,2.1523,2.1514,2.1526,2.1516,2.1554,2.1517,2.1522,2.1515,2.1513,2.1514,2.1561,2.1562,2.1563,2.1564,0,2.1495,2.1487,2.15,2.151,2.1521,2.1528,2.1533,2.1543,2.1524,2.1536,2.1552,2.156,2.1576,2.159,2.16,2.1598,2.1578,2.1575,2.1583,2.1588,2.1591,2.1588,2.1475,2.1572,2.1572,2.1571,2.157,2.157,2.1562,2.1581,2.1581,2.1595,2.1598,2.1603,2.1619,2.1612,2.1626,2.1637,2.1625,2.1645,2.1646,2.1656,2.1657,2.1672,2.1656,2.1668,2.167,2.1673,2.1677,2.159,2.1674,2.1674,2.1674,2.1673,2.1673,0,2.165,2.1649,2.1663,2.1671,2.1682,2.1662,2.1667,2.1678,2.1695,2.1698,2.1709,2.1727,2.1741,2.1734,2.1745,2.1759,2.1749,2.1762,2.176,2.176,2.1691,2.1683,2.1769,2.1769,2.1769,2.1769,2.1769,2.1769,2.1697,2.1727,2.1719,2.1749,2.1748,2.1766,2.1771,2.1775,2.1777,2.1799,2.181,2.1805,2.1804,2.1815,2.1826,2.1824,2.1829,2.1845,2.1839,2.1775,2.1765,2.1756,2.1748,2.1847,2.1847,2.1906,2.1907,2.1907]}]]